Time,TemperatureF,DewpointF,PressureIn,WindDirection,WindDirectionDegrees,WindSpeedMPH,WindSpeedGustMPH,Humidity,HourlyPrecipIn,Conditions,Clouds,dailyrainin,SoftwareType,DateUTC
2013-03-06 00:01:00,27.0,22.8,30.09,NE,45,19.9,19.9,84,0.00,,,0.00,WUHU216HW,2013-03-06 05:01:00,
2013-03-06 00:06:00,27.0,22.8,30.09,NE,45,16.3,24.8,84,0.00,,,0.00,WUHU216HW,2013-03-06 05:06:00,
2013-03-06 00:11:00,27.0,23.0,30.09,NE,45,19.9,27.3,85,0.00,,,0.00,WUHU216HW,2013-03-06 05:11:00,
2013-03-06 00:16:00,27.0,23.0,30.09,NE,45,21.0,27.3,85,0.00,,,0.00,WUHU216HW,2013-03-06 05:16:00,
2013-03-06 00:21:00,27.0,23.0,30.09,NE,45,20.8,23.0,85,0.00,,,0.00,WUHU216HW,2013-03-06 05:21:00,
2013-03-06 00:26:00,27.0,23.0,30.09,North,0,15.7,23.0,85,0.00,,,0.00,WUHU216HW,2013-03-06 05:26:00,
2013-03-06 00:31:00,27.0,23.0,30.09,NNE,23,17.0,19.2,85,0.00,,,0.00,WUHU216HW,2013-03-06 05:31:00,
2013-03-06 00:36:00,27.0,23.3,30.09,NNE,23,17.4,20.4,86,0.00,,,0.00,WUHU216HW,2013-03-06 05:36:00,
2013-03-06 00:41:00,27.0,23.3,30.09,NNE,23,17.7,20.4,86,0.00,,,0.00,WUHU216HW,2013-03-06 05:41:00,
2013-03-06 00:46:00,27.2,23.5,30.09,NNE,23,17.0,18.3,86,0.00,,,0.00,WUHU216HW,2013-03-06 05:46:00,
2013-03-06 00:52:00,27.2,23.5,30.09,NNE,23,16.6,18.3,86,0.00,,,0.00,WUHU216HW,2013-03-06 05:52:00,
2013-03-06 00:57:00,27.4,23.7,30.09,NNE,23,18.6,18.6,86,0.00,,,0.00,WUHU216HW,2013-03-06 05:57:00,
2013-03-06 01:02:00,27.4,23.7,30.10,North,0,17.7,21.3,86,0.00,,,0.00,WUHU216HW,2013-03-06 06:02:00,
2013-03-06 01:07:00,27.5,23.9,30.10,North,0,15.0,21.3,86,0.00,,,0.00,WUHU216HW,2013-03-06 06:07:00,
2013-03-06 01:12:00,27.5,23.9,30.09,NNE,23,15.9,19.5,86,0.00,,,0.00,WUHU216HW,2013-03-06 06:12:00,
2013-03-06 01:17:00,27.5,23.9,30.09,North,0,17.2,22.4,86,0.00,,,0.00,WUHU216HW,2013-03-06 06:17:00,
2013-03-06 01:22:00,27.5,23.9,30.10,NNE,23,14.3,22.4,86,0.00,,,0.00,WUHU216HW,2013-03-06 06:22:00,
2013-03-06 01:27:00,27.7,24.0,30.10,NNE,23,15.9,21.5,86,0.00,,,0.00,WUHU216HW,2013-03-06 06:27:00,
2013-03-06 01:32:00,27.7,24.0,30.09,NNE,23,16.6,21.5,86,0.00,,,0.00,WUHU216HW,2013-03-06 06:32:00,
2013-03-06 01:37:00,27.7,24.3,30.10,North,0,13.6,18.1,87,0.00,,,0.00,WUHU216HW,2013-03-06 06:37:00,
2013-03-06 01:42:00,27.7,24.3,30.10,NNE,23,12.1,17.4,87,0.00,,,0.00,WUHU216HW,2013-03-06 06:42:00,
2013-03-06 01:47:00,27.7,24.0,30.10,NNE,23,16.6,17.7,86,0.00,,,0.00,WUHU216HW,2013-03-06 06:47:00,
2013-03-06 01:52:00,27.9,24.2,30.10,North,0,12.3,17.9,86,0.00,,,0.00,WUHU216HW,2013-03-06 06:52:00,
2013-03-06 01:57:00,27.9,24.2,30.10,North,0,12.8,17.9,86,0.00,,,0.00,WUHU216HW,2013-03-06 06:57:00,
2013-03-06 02:02:00,27.9,24.2,30.11,North,0,14.1,16.6,86,0.00,,,0.00,WUHU216HW,2013-03-06 07:02:00,
2013-03-06 02:07:00,27.9,24.5,30.11,North,0,15.7,15.7,87,0.00,,,0.00,WUHU216HW,2013-03-06 07:07:00,
2013-03-06 02:12:00,27.9,24.5,30.11,North,0,12.3,17.2,87,0.00,,,0.00,WUHU216HW,2013-03-06 07:12:00,
2013-03-06 02:17:00,27.9,24.5,30.12,North,0,10.1,17.2,87,0.00,,,0.00,WUHU216HW,2013-03-06 07:17:00,
2013-03-06 02:22:00,27.9,24.5,30.12,North,0,8.9,16.6,87,0.00,,,0.00,WUHU216HW,2013-03-06 07:22:00,
2013-03-06 02:27:00,27.9,24.5,30.12,North,0,11.2,16.6,87,0.00,,,0.00,WUHU216HW,2013-03-06 07:27:00,
2013-03-06 02:32:00,27.9,24.5,30.11,North,0,13.0,15.9,87,0.00,,,0.00,WUHU216HW,2013-03-06 07:32:00,
2013-03-06 02:37:00,27.9,24.9,30.11,North,0,12.1,15.9,88,0.00,,,0.00,WUHU216HW,2013-03-06 07:37:00,
2013-03-06 02:42:00,28.1,25.0,30.11,North,0,13.4,15.0,88,0.00,,,0.00,WUHU216HW,2013-03-06 07:42:00,
2013-03-06 02:47:00,28.1,25.0,30.11,NNE,23,15.0,15.0,88,0.00,,,0.00,WUHU216HW,2013-03-06 07:47:00,
2013-03-06 02:52:00,28.1,25.0,30.11,North,0,16.8,16.8,88,0.00,,,0.00,WUHU216HW,2013-03-06 07:52:00,
2013-03-06 02:57:00,28.3,25.2,30.10,North,0,17.4,17.4,88,0.00,,,0.00,WUHU216HW,2013-03-06 07:57:00,
2013-03-06 03:02:00,28.4,25.4,30.10,North,0,11.4,17.4,88,0.00,,,0.00,WUHU216HW,2013-03-06 08:02:00,
2013-03-06 03:07:00,28.4,25.4,30.10,NNE,23,10.3,15.7,88,0.00,,,0.00,WUHU216HW,2013-03-06 08:07:00,
2013-03-06 03:12:00,28.4,25.4,30.10,North,0,11.9,15.7,88,0.00,,,0.00,WUHU216HW,2013-03-06 08:12:00,
2013-03-06 03:17:00,28.4,25.4,30.10,North,0,10.7,15.0,88,0.00,,,0.00,WUHU216HW,2013-03-06 08:17:00,
2013-03-06 03:22:00,28.4,25.4,30.10,North,0,11.4,13.9,88,0.00,,,0.00,WUHU216HW,2013-03-06 08:22:00,
2013-03-06 03:27:00,28.4,25.4,30.10,North,0,7.8,12.8,88,0.00,,,0.00,WUHU216HW,2013-03-06 08:27:00,
2013-03-06 03:32:00,28.4,25.4,30.10,North,0,8.7,11.2,88,0.00,,,0.00,WUHU216HW,2013-03-06 08:32:00,
2013-03-06 03:37:00,28.4,25.4,30.11,North,0,7.8,9.6,88,0.00,,,0.00,WUHU216HW,2013-03-06 08:37:00,
2013-03-06 03:42:00,28.4,25.4,30.11,North,0,6.0,8.5,88,0.00,,,0.00,WUHU216HW,2013-03-06 08:42:00,
2013-03-06 03:47:00,28.4,25.4,30.11,North,0,9.2,9.2,88,0.00,,,0.00,WUHU216HW,2013-03-06 08:47:00,
2013-03-06 03:52:00,28.4,25.4,30.11,North,0,6.3,9.2,88,0.00,,,0.00,WUHU216HW,2013-03-06 08:52:00,
2013-03-06 03:57:00,28.4,25.4,30.11,North,0,9.6,9.6,88,0.00,,,0.00,WUHU216HW,2013-03-06 08:57:00,
2013-03-06 04:02:00,28.4,25.4,30.11,North,0,8.5,9.8,88,0.00,,,0.00,WUHU216HW,2013-03-06 09:02:00,
2013-03-06 04:07:00,28.4,25.4,30.11,North,0,6.7,12.1,88,0.00,,,0.00,WUHU216HW,2013-03-06 09:07:00,
2013-03-06 04:12:00,28.4,25.4,30.12,North,0,9.4,12.1,88,0.00,,,0.00,WUHU216HW,2013-03-06 09:12:00,
2013-03-06 04:17:00,28.4,25.4,30.12,North,0,9.4,9.4,88,0.00,,,0.00,WUHU216HW,2013-03-06 09:17:00,
2013-03-06 04:22:00,28.6,25.2,30.12,North,0,5.6,9.4,87,0.00,,,0.00,WUHU216HW,2013-03-06 09:22:00,
2013-03-06 04:27:00,28.6,25.2,30.12,North,0,8.7,8.9,87,0.00,,,0.00,WUHU216HW,2013-03-06 09:27:00,
2013-03-06 04:32:00,28.6,25.2,30.12,North,0,6.9,12.8,87,0.00,,,0.00,WUHU216HW,2013-03-06 09:32:00,
2013-03-06 04:37:00,28.8,25.4,30.12,North,0,6.5,12.8,87,0.00,,,0.00,WUHU216HW,2013-03-06 09:37:00,
2013-03-06 04:42:00,28.8,25.4,30.13,North,0,5.1,11.6,87,0.00,,,0.00,WUHU216HW,2013-03-06 09:42:00,
2013-03-06 04:47:00,29.0,25.6,30.13,North,0,6.5,11.6,87,0.00,,,0.00,WUHU216HW,2013-03-06 09:47:00,
2013-03-06 04:52:00,29.0,25.6,30.13,North,0,8.1,8.1,87,0.00,,,0.00,WUHU216HW,2013-03-06 09:52:00,
2013-03-06 04:57:00,29.2,25.5,30.13,NNW,338,6.3,9.2,86,0.00,,,0.00,WUHU216HW,2013-03-06 09:57:00,
2013-03-06 05:02:00,29.2,25.5,30.13,North,0,4.5,9.2,86,0.00,,,0.00,WUHU216HW,2013-03-06 10:02:00,
2013-03-06 05:07:00,29.2,25.7,30.14,North,0,4.7,7.2,87,0.00,,,0.00,WUHU216HW,2013-03-06 10:07:00,
2013-03-06 05:12:00,29.3,25.7,30.14,North,0,4.7,7.4,86,0.00,,,0.00,WUHU216HW,2013-03-06 10:12:00,
2013-03-06 05:17:00,29.3,25.7,30.14,North,0,6.5,8.7,86,0.00,,,0.00,WUHU216HW,2013-03-06 10:17:00,
2013-03-06 05:22:00,29.3,25.7,30.15,North,0,6.0,8.7,86,0.00,,,0.00,WUHU216HW,2013-03-06 10:22:00,
2013-03-06 05:27:00,29.5,25.8,30.15,North,0,6.0,7.6,86,0.00,,,0.00,WUHU216HW,2013-03-06 10:27:00,
2013-03-06 05:32:00,29.5,25.8,30.15,North,0,6.3,8.5,86,0.00,,,0.00,WUHU216HW,2013-03-06 10:32:00,
2013-03-06 05:37:00,29.5,25.8,30.15,North,0,4.9,8.5,86,0.00,,,0.00,WUHU216HW,2013-03-06 10:37:00,
2013-03-06 05:42:00,29.5,25.8,30.16,NW,315,5.8,6.7,86,0.00,,,0.00,WUHU216HW,2013-03-06 10:42:00,
2013-03-06 05:47:00,29.5,25.8,30.16,NNW,338,4.9,8.1,86,0.00,,,0.00,WUHU216HW,2013-03-06 10:47:00,
2013-03-06 05:52:00,29.7,26.0,30.16,North,0,5.6,8.1,86,0.00,,,0.00,WUHU216HW,2013-03-06 10:52:00,
2013-03-06 05:57:00,29.7,26.0,30.16,North,0,5.4,8.1,86,0.00,,,0.00,WUHU216HW,2013-03-06 10:57:00,
2013-03-06 06:02:00,29.7,26.0,30.17,North,0,4.9,7.2,86,0.00,,,0.00,WUHU216HW,2013-03-06 11:02:00,
2013-03-06 06:07:00,29.7,26.0,30.17,North,0,3.6,7.2,86,0.00,,,0.00,WUHU216HW,2013-03-06 11:07:00,
2013-03-06 06:12:00,29.7,26.0,30.17,NNW,338,5.8,6.3,86,0.00,,,0.00,WUHU216HW,2013-03-06 11:12:00,
2013-03-06 06:17:00,29.7,26.0,30.17,NNW,338,5.1,7.2,86,0.00,,,0.00,WUHU216HW,2013-03-06 11:17:00,
2013-03-06 06:22:00,29.7,26.0,30.18,NNW,338,5.4,7.2,86,0.00,,,0.00,WUHU216HW,2013-03-06 11:22:00,
2013-03-06 06:27:00,29.7,26.0,30.18,North,0,3.8,5.8,86,0.00,,,0.00,WUHU216HW,2013-03-06 11:27:00,
2013-03-06 06:32:00,29.7,26.0,30.19,NNW,338,4.7,7.4,86,0.00,,,0.00,WUHU216HW,2013-03-06 11:32:00,
2013-03-06 06:37:00,29.5,25.8,30.19,NW,315,7.8,8.9,86,0.00,,,0.00,WUHU216HW,2013-03-06 11:37:00,
2013-03-06 06:42:00,29.3,25.7,30.20,NW,315,6.9,8.9,86,0.00,,,0.00,WUHU216HW,2013-03-06 11:42:00,
2013-03-06 06:47:00,29.3,25.7,30.20,NW,315,6.3,8.9,86,0.00,,,0.00,WUHU216HW,2013-03-06 11:47:00,
2013-03-06 06:52:00,29.3,25.7,30.20,NW,315,7.8,8.9,86,0.00,,,0.00,WUHU216HW,2013-03-06 11:52:00,
2013-03-06 06:57:00,29.3,25.7,30.21,WNW,293,6.0,8.5,86,0.00,,,0.00,WUHU216HW,2013-03-06 11:57:00,
2013-03-06 07:02:00,29.5,25.8,30.21,NW,315,10.3,10.3,86,0.00,,,0.00,WUHU216HW,2013-03-06 12:02:00,
2013-03-06 07:07:00,29.5,25.8,30.21,NNW,338,8.5,10.3,86,0.00,,,0.00,WUHU216HW,2013-03-06 12:07:00,
2013-03-06 07:12:00,29.7,26.0,30.21,NW,315,5.6,8.5,86,0.00,,,0.00,WUHU216HW,2013-03-06 12:12:00,
2013-03-06 07:17:00,29.7,26.0,30.22,North,0,6.0,6.9,86,0.00,,,0.00,WUHU216HW,2013-03-06 12:17:00,
2013-03-06 07:22:00,29.7,26.0,30.22,NW,315,6.3,6.9,86,0.00,,,0.00,WUHU216HW,2013-03-06 12:22:00,
2013-03-06 07:27:00,29.9,25.9,30.22,North,0,5.1,8.5,85,0.00,,,0.00,WUHU216HW,2013-03-06 12:27:00,
2013-03-06 07:32:00,29.9,25.9,30.23,NNW,338,4.9,8.5,85,0.00,,,0.00,WUHU216HW,2013-03-06 12:32:00,
2013-03-06 07:37:00,30.1,26.1,30.23,NNW,338,5.8,8.3,85,0.00,,,0.00,WUHU216HW,2013-03-06 12:37:00,
2013-03-06 07:42:00,30.1,26.1,30.23,North,0,4.7,8.3,85,0.00,,,0.00,WUHU216HW,2013-03-06 12:42:00,
2013-03-06 07:47:00,30.2,26.3,30.23,NNW,338,5.4,5.8,85,0.00,,,0.00,WUHU216HW,2013-03-06 12:47:00,
2013-03-06 07:52:00,30.4,26.2,30.23,North,0,6.0,6.0,84,0.00,,,0.00,WUHU216HW,2013-03-06 12:52:00,
2013-03-06 07:57:00,30.4,26.2,30.24,NNW,338,8.5,8.5,84,0.00,,,0.00,WUHU216HW,2013-03-06 12:57:00,
2013-03-06 08:02:00,30.4,26.2,30.24,NNW,338,4.9,8.5,84,0.00,,,0.00,WUHU216HW,2013-03-06 13:02:00,
2013-03-06 08:07:00,30.6,26.4,30.24,North,0,4.7,8.5,84,0.00,,,0.00,WUHU216HW,2013-03-06 13:07:00,
2013-03-06 08:12:00,30.6,26.4,30.25,NNW,338,4.3,6.7,84,0.00,,,0.00,WUHU216HW,2013-03-06 13:12:00,
2013-03-06 08:17:00,30.6,26.4,30.25,NNW,338,6.0,7.4,84,0.00,,,0.00,WUHU216HW,2013-03-06 13:17:00,
2013-03-06 08:22:00,30.8,26.3,30.25,North,0,4.5,8.5,83,0.00,,,0.00,WUHU216HW,2013-03-06 13:22:00,
2013-03-06 08:27:00,31.0,26.5,30.25,NNW,338,6.9,8.5,83,0.00,,,0.00,WUHU216HW,2013-03-06 13:27:00,
2013-03-06 08:32:00,31.1,26.7,30.25,North,0,5.1,6.9,83,0.00,,,0.00,WUHU216HW,2013-03-06 13:32:00,
2013-03-06 08:37:00,31.1,26.7,30.26,NNW,338,6.3,6.7,83,0.00,,,0.00,WUHU216HW,2013-03-06 13:37:00,
2013-03-06 08:42:00,31.3,26.8,30.26,NNW,338,6.5,6.5,83,0.00,,,0.00,WUHU216HW,2013-03-06 13:42:00,
2013-03-06 08:47:00,31.3,26.8,30.25,North,0,5.4,6.5,83,0.00,,,0.00,WUHU216HW,2013-03-06 13:47:00,
2013-03-06 08:52:00,31.7,26.8,30.26,NNW,338,4.0,6.9,82,0.00,,,0.00,WUHU216HW,2013-03-06 13:52:00,
2013-03-06 08:57:00,31.7,26.8,30.26,NNW,338,3.4,6.9,82,0.00,,,0.00,WUHU216HW,2013-03-06 13:57:00,
2013-03-06 09:02:00,31.9,27.0,30.26,North,0,5.1,5.1,82,0.00,,,0.00,WUHU216HW,2013-03-06 14:02:00,
2013-03-06 09:07:00,32.0,27.2,30.26,North,0,6.3,7.2,82,0.00,,,0.00,WUHU216HW,2013-03-06 14:07:00,
2013-03-06 09:12:00,32.0,27.2,30.26,North,0,6.9,8.9,82,0.00,,,0.00,WUHU216HW,2013-03-06 14:12:00,
2013-03-06 09:17:00,32.0,26.9,30.26,North,0,7.4,9.8,81,0.00,,,0.00,WUHU216HW,2013-03-06 14:17:00,
2013-03-06 09:22:00,32.4,27.3,30.26,North,0,6.3,9.8,81,0.00,,,0.00,WUHU216HW,2013-03-06 14:22:00,
2013-03-06 09:27:00,32.8,27.5,30.26,North,0,6.9,9.8,81,0.00,,,0.00,WUHU216HW,2013-03-06 14:27:00,
2013-03-06 09:32:00,32.9,27.7,30.26,North,0,5.1,7.6,81,0.00,,,0.00,WUHU216HW,2013-03-06 14:32:00,
2013-03-06 09:37:00,33.1,27.9,30.26,North,0,4.0,7.4,81,0.00,,,0.00,WUHU216HW,2013-03-06 14:37:00,
2013-03-06 09:42:00,33.1,27.9,30.26,North,0,4.0,4.5,81,0.00,,,0.00,WUHU216HW,2013-03-06 14:42:00,
2013-03-06 10:05:00,34.4,27.2,30.26,NNE,23,10.1,10.1,75,0.00,,,0.00,WUHU216HW,2013-03-06 15:05:00,
2013-03-06 10:10:00,34.4,27.8,30.26,North,0,6.0,10.5,77,0.00,,,0.00,WUHU216HW,2013-03-06 15:10:00,
2013-03-06 10:15:00,34.6,27.4,30.27,NE,45,7.4,9.8,75,0.00,,,0.00,WUHU216HW,2013-03-06 15:15:00,
2013-03-06 10:20:00,34.4,27.6,30.27,North,0,10.5,11.2,76,0.00,,,0.00,WUHU216HW,2013-03-06 15:20:00,
2013-03-06 10:25:00,34.6,27.7,30.28,NE,45,7.6,12.8,76,0.00,,,0.00,WUHU216HW,2013-03-06 15:25:00,
2013-03-06 10:30:00,34.9,27.7,30.28,North,0,9.8,12.8,75,0.00,,,0.00,WUHU216HW,2013-03-06 15:30:00,
2013-03-06 10:35:00,35.1,27.5,30.28,North,0,10.5,10.5,74,0.00,,,0.00,WUHU216HW,2013-03-06 15:35:00,
2013-03-06 10:40:00,35.3,27.5,30.29,NNE,23,12.1,13.2,73,0.00,,,0.00,WUHU216HW,2013-03-06 15:40:00,
2013-03-06 10:45:00,35.5,27.6,30.29,North,0,6.9,13.2,73,0.00,,,0.00,WUHU216HW,2013-03-06 15:45:00,
2013-03-06 10:50:00,35.8,28.0,30.29,North,0,8.7,11.4,73,0.00,,,0.00,WUHU216HW,2013-03-06 15:50:00,
2013-03-06 10:55:00,36.2,28.4,30.29,NNE,23,11.4,11.9,73,0.00,,,0.00,WUHU216HW,2013-03-06 15:55:00,
2013-03-06 11:00:00,35.8,28.0,30.29,NNE,23,8.5,12.1,73,0.00,,,0.00,WUHU216HW,2013-03-06 16:00:00,
2013-03-06 11:05:00,36.0,28.2,30.29,North,0,7.6,12.1,73,0.00,,,0.00,WUHU216HW,2013-03-06 16:05:00,
2013-03-06 11:10:00,36.4,28.5,30.30,North,0,8.3,11.0,73,0.00,,,0.00,WUHU216HW,2013-03-06 16:10:00,
2013-03-06 11:15:00,36.5,28.4,30.29,NNE,23,10.7,11.0,72,0.00,,,0.00,WUHU216HW,2013-03-06 16:15:00,
2013-03-06 11:20:00,36.5,28.4,30.30,North,0,8.1,10.7,72,0.00,,,0.00,WUHU216HW,2013-03-06 16:20:00,
2013-03-06 11:25:00,37.1,28.3,30.30,NNE,23,5.8,9.4,70,0.00,,,0.00,WUHU216HW,2013-03-06 16:25:00,
2013-03-06 11:30:00,37.4,29.0,30.30,North,0,6.0,7.4,71,0.00,,,0.00,WUHU216HW,2013-03-06 16:30:00,
2013-03-06 11:35:00,37.8,29.0,30.30,North,0,4.7,9.6,70,0.00,,,0.00,WUHU216HW,2013-03-06 16:35:00,
2013-03-06 11:40:00,37.4,28.6,30.30,North,0,7.2,11.4,70,0.00,,,0.00,WUHU216HW,2013-03-06 16:40:00,
2013-03-06 11:45:00,37.8,29.0,30.30,NNW,338,6.5,11.4,70,0.00,,,0.00,WUHU216HW,2013-03-06 16:45:00,
2013-03-06 11:50:00,38.2,28.9,30.30,North,0,11.4,11.4,69,0.00,,,0.00,WUHU216HW,2013-03-06 16:50:00,
2013-03-06 11:55:00,38.5,28.8,30.30,North,0,6.0,11.4,68,0.00,,,0.00,WUHU216HW,2013-03-06 16:55:00,
2013-03-06 12:00:00,38.9,28.8,30.30,North,0,7.6,10.1,67,0.00,,,0.00,WUHU216HW,2013-03-06 17:00:00,
2013-03-06 12:06:00,39.2,29.1,30.30,North,0,6.3,10.1,67,0.00,,,0.00,WUHU216HW,2013-03-06 17:06:00,
2013-03-06 12:11:00,39.8,29.6,30.30,North,0,4.7,8.1,67,0.00,,,0.00,WUHU216HW,2013-03-06 17:11:00,
2013-03-06 12:16:00,39.6,29.1,30.30,North,0,4.5,8.9,66,0.00,,,0.00,WUHU216HW,2013-03-06 17:16:00,
2013-03-06 12:21:00,39.8,29.3,30.30,NNW,338,7.6,8.9,66,0.00,,,0.00,WUHU216HW,2013-03-06 17:21:00,
2013-03-06 12:26:00,39.8,28.9,30.30,North,0,7.4,9.4,65,0.00,,,0.00,WUHU216HW,2013-03-06 17:26:00,
2013-03-06 12:31:00,40.0,29.8,30.30,North,0,3.4,10.1,67,0.00,,,0.00,WUHU216HW,2013-03-06 17:31:00,
2013-03-06 12:36:00,40.3,29.4,30.30,North,0,10.1,10.1,65,0.00,,,0.00,WUHU216HW,2013-03-06 17:36:00,
2013-03-06 12:41:00,40.0,29.4,30.31,North,0,7.6,10.1,66,0.00,,,0.00,WUHU216HW,2013-03-06 17:41:00,
2013-03-06 12:46:00,40.0,29.1,30.31,North,0,4.5,9.6,65,0.00,,,0.00,WUHU216HW,2013-03-06 17:46:00,
2013-03-06 12:51:00,39.6,28.7,30.31,North,0,5.4,9.4,65,0.00,,,0.00,WUHU216HW,2013-03-06 17:51:00,
2013-03-06 12:56:00,39.6,28.7,30.31,North,0,5.1,7.2,65,0.00,,,0.00,WUHU216HW,2013-03-06 17:56:00,
2013-03-06 13:01:00,39.4,28.5,30.31,NNW,338,4.0,7.2,65,0.00,,,0.00,WUHU216HW,2013-03-06 18:01:00,
2013-03-06 13:06:00,40.0,29.8,30.31,North,0,5.4,6.9,67,0.00,,,0.00,WUHU216HW,2013-03-06 18:06:00,
2013-03-06 13:11:00,40.5,29.6,30.31,North,0,6.5,6.5,65,0.00,,,0.00,WUHU216HW,2013-03-06 18:11:00,
2013-03-06 13:16:00,40.5,29.6,30.31,North,0,4.7,8.3,65,0.00,,,0.00,WUHU216HW,2013-03-06 18:16:00,
2013-03-06 13:21:00,40.5,29.3,30.30,North,0,5.6,8.3,64,0.00,,,0.00,WUHU216HW,2013-03-06 18:21:00,
2013-03-06 13:26:00,40.5,29.6,30.30,North,0,5.4,5.6,65,0.00,,,0.00,WUHU216HW,2013-03-06 18:26:00,
2013-03-06 13:31:00,40.3,29.4,30.30,North,0,7.6,7.6,65,0.00,,,0.00,WUHU216HW,2013-03-06 18:31:00,
2013-03-06 13:36:00,40.7,29.1,30.30,North,0,3.6,7.6,63,0.00,,,0.00,WUHU216HW,2013-03-06 18:36:00,
2013-03-06 13:41:00,40.7,29.4,30.29,North,0,3.6,6.3,64,0.00,,,0.00,WUHU216HW,2013-03-06 18:41:00,
2013-03-06 13:46:00,41.2,29.5,30.29,NNW,338,8.5,8.5,63,0.00,,,0.00,WUHU216HW,2013-03-06 18:46:00,
2013-03-06 13:51:00,40.3,29.1,30.29,NNW,338,4.9,8.5,64,0.00,,,0.00,WUHU216HW,2013-03-06 18:51:00,
2013-03-06 13:56:00,40.0,29.1,30.29,North,0,6.9,6.9,65,0.00,,,0.00,WUHU216HW,2013-03-06 18:56:00,
2013-03-06 14:01:00,39.8,28.5,30.29,NNW,338,5.4,6.9,64,0.00,,,0.00,WUHU216HW,2013-03-06 19:01:00,
2013-03-06 14:06:00,40.0,29.1,30.29,North,0,3.1,5.4,65,0.00,,,0.00,WUHU216HW,2013-03-06 19:06:00,
2013-03-06 14:11:00,40.0,29.4,30.30,NNW,338,7.6,7.6,66,0.00,,,0.00,WUHU216HW,2013-03-06 19:11:00,
2013-03-06 14:16:00,39.2,28.7,30.30,NW,315,6.9,8.5,66,0.00,,,0.00,WUHU216HW,2013-03-06 19:16:00,
2013-03-06 14:21:00,38.9,28.8,30.30,NNW,338,6.9,12.1,67,0.00,,,0.00,WUHU216HW,2013-03-06 19:21:00,
2013-03-06 14:26:00,39.1,29.0,30.30,NW,315,4.9,12.1,67,0.00,,,0.00,WUHU216HW,2013-03-06 19:26:00,
2013-03-06 14:31:00,39.2,29.1,30.30,North,0,6.0,6.5,67,0.00,,,0.00,WUHU216HW,2013-03-06 19:31:00,
2013-03-06 14:36:00,39.1,29.4,30.30,NW,315,5.8,7.4,68,0.00,,,0.00,WUHU216HW,2013-03-06 19:36:00,
2013-03-06 14:41:00,38.9,28.8,30.30,NNW,338,8.1,9.2,67,0.00,,,0.00,WUHU216HW,2013-03-06 19:41:00,
2013-03-06 14:46:00,39.1,29.0,30.30,NW,315,6.3,9.2,67,0.00,,,0.00,WUHU216HW,2013-03-06 19:46:00,
2013-03-06 14:51:00,38.7,28.6,30.30,NNW,338,8.3,9.2,67,0.00,,,0.00,WUHU216HW,2013-03-06 19:51:00,
2013-03-06 14:56:00,38.9,28.8,30.30,NNW,338,6.5,9.8,67,0.00,,,0.00,WUHU216HW,2013-03-06 19:56:00,
2013-03-06 15:01:00,39.2,29.1,30.30,North,0,5.6,9.8,67,0.00,,,0.00,WUHU216HW,2013-03-06 20:01:00,
2013-03-06 15:06:00,39.6,29.1,30.30,NW,315,6.3,6.5,66,0.00,,,0.00,WUHU216HW,2013-03-06 20:06:00,
2013-03-06 15:11:00,39.2,28.7,30.30,NW,315,6.3,8.3,66,0.00,,,0.00,WUHU216HW,2013-03-06 20:11:00,
2013-03-06 15:16:00,39.2,28.7,30.30,NNW,338,9.2,9.2,66,0.00,,,0.00,WUHU216HW,2013-03-06 20:16:00,
2013-03-06 15:21:00,39.1,28.5,30.30,NW,315,6.7,9.2,66,0.00,,,0.00,WUHU216HW,2013-03-06 20:21:00,
2013-03-06 15:26:00,39.2,29.1,30.30,NNW,338,5.1,6.7,67,0.00,,,0.00,WUHU216HW,2013-03-06 20:26:00,
2013-03-06 15:31:00,39.2,29.1,30.30,NW,315,5.6,7.8,67,0.00,,,0.00,WUHU216HW,2013-03-06 20:31:00,
2013-03-06 15:36:00,39.4,29.3,30.30,NW,315,6.9,7.8,67,0.00,,,0.00,WUHU216HW,2013-03-06 20:36:00,
2013-03-06 15:41:00,39.2,29.1,30.30,NNW,338,5.4,6.9,67,0.00,,,0.00,WUHU216HW,2013-03-06 20:41:00,
2013-03-06 15:46:00,39.6,29.4,30.31,NW,315,6.0,7.4,67,0.00,,,0.00,WUHU216HW,2013-03-06 20:46:00,
2013-03-06 15:51:00,39.2,29.1,30.30,WNW,293,6.5,7.4,67,0.00,,,0.00,WUHU216HW,2013-03-06 20:51:00,
2013-03-06 15:56:00,39.4,29.3,30.31,NW,315,5.8,8.5,67,0.00,,,0.00,WUHU216HW,2013-03-06 20:56:00,
2013-03-06 16:01:00,39.4,29.3,30.31,WNW,293,4.9,8.5,67,0.00,,,0.00,WUHU216HW,2013-03-06 21:01:00,
2013-03-06 16:06:00,39.1,29.4,30.31,WNW,293,7.4,8.5,68,0.00,,,0.00,WUHU216HW,2013-03-06 21:06:00,
2013-03-06 16:11:00,38.5,29.6,30.31,WSW,248,9.4,9.4,70,0.00,,,0.00,WUHU216HW,2013-03-06 21:11:00,
2013-03-06 16:16:00,37.8,29.3,30.31,West,270,9.2,10.7,71,0.00,,,0.00,WUHU216HW,2013-03-06 21:16:00,
2013-03-06 16:21:00,37.6,29.4,30.31,West,270,8.5,10.7,72,0.00,,,0.00,WUHU216HW,2013-03-06 21:21:00,
2013-03-06 16:26:00,37.4,29.3,30.31,West,270,7.6,10.5,72,0.00,,,0.00,WUHU216HW,2013-03-06 21:26:00,
2013-03-06 16:31:00,37.3,29.4,30.32,West,270,12.1,12.1,73,0.00,,,0.00,WUHU216HW,2013-03-06 21:31:00,
2013-03-06 16:36:00,36.9,29.3,30.32,West,270,9.6,12.1,74,0.00,,,0.00,WUHU216HW,2013-03-06 21:36:00,
2013-03-06 16:41:00,36.9,29.3,30.32,WSW,248,12.3,12.3,74,0.00,,,0.00,WUHU216HW,2013-03-06 21:41:00,
2013-03-06 16:46:00,36.7,29.5,30.32,West,270,6.3,12.3,75,0.00,,,0.00,WUHU216HW,2013-03-06 21:46:00,
2013-03-06 16:51:00,36.7,29.2,30.32,WNW,293,10.3,10.5,74,0.00,,,0.00,WUHU216HW,2013-03-06 21:51:00,
2013-03-06 16:56:00,36.5,29.3,30.32,West,270,10.1,10.5,75,0.00,,,0.00,WUHU216HW,2013-03-06 21:56:00,
2013-03-06 17:01:00,36.5,29.3,30.32,West,270,8.9,10.5,75,0.00,,,0.00,WUHU216HW,2013-03-06 22:01:00,
2013-03-06 17:06:00,36.4,28.8,30.32,WNW,293,9.4,10.5,74,0.00,,,0.00,WUHU216HW,2013-03-06 22:06:00,
2013-03-06 17:11:00,36.0,28.8,30.32,West,270,9.6,12.5,75,0.00,,,0.00,WUHU216HW,2013-03-06 22:11:00,
2013-03-06 17:16:00,36.0,29.2,30.32,West,270,8.5,12.5,76,0.00,,,0.00,WUHU216HW,2013-03-06 22:16:00,
2013-03-06 17:21:00,35.8,29.0,30.32,West,270,8.5,11.2,76,0.00,,,0.00,WUHU216HW,2013-03-06 22:21:00,
2013-03-06 17:26:00,35.6,28.8,30.32,WNW,293,8.5,11.2,76,0.00,,,0.00,WUHU216HW,2013-03-06 22:26:00,
2013-03-06 17:31:00,35.6,28.8,30.33,WNW,293,9.8,10.5,76,0.00,,,0.00,WUHU216HW,2013-03-06 22:31:00,
2013-03-06 17:36:00,35.3,28.5,30.33,West,270,10.3,15.0,76,0.00,,,0.00,WUHU216HW,2013-03-06 22:36:00,
2013-03-06 17:41:00,34.9,28.4,30.33,West,270,11.0,15.0,77,0.00,,,0.00,WUHU216HW,2013-03-06 22:41:00,
2013-03-06 17:46:00,34.9,28.4,30.33,WNW,293,11.9,11.9,77,0.00,,,0.00,WUHU216HW,2013-03-06 22:46:00,
2013-03-06 17:51:00,34.9,28.7,30.33,NW,315,8.5,14.3,78,0.00,,,0.00,WUHU216HW,2013-03-06 22:51:00,
2013-03-06 17:56:00,34.9,28.7,30.34,WNW,293,12.1,14.3,78,0.00,,,0.00,WUHU216HW,2013-03-06 22:56:00,
2013-03-06 18:01:00,34.9,28.7,30.34,WNW,293,9.6,12.1,78,0.00,,,0.00,WUHU216HW,2013-03-06 23:01:00,
2013-03-06 18:06:00,34.7,28.8,30.34,WNW,293,8.1,10.5,79,0.00,,,0.00,WUHU216HW,2013-03-06 23:06:00,
2013-03-06 18:11:00,34.7,28.5,30.34,WNW,293,11.2,11.2,78,0.00,,,0.00,WUHU216HW,2013-03-06 23:11:00,
2013-03-06 18:16:00,34.6,28.4,30.34,West,270,6.7,11.2,78,0.00,,,0.00,WUHU216HW,2013-03-06 23:16:00,
2013-03-06 18:21:00,34.7,28.5,30.34,WNW,293,8.3,11.0,78,0.00,,,0.00,WUHU216HW,2013-03-06 23:21:00,
2013-03-06 18:26:00,34.6,28.4,30.34,WNW,293,8.5,10.3,78,0.00,,,0.00,WUHU216HW,2013-03-06 23:26:00,
2013-03-06 18:31:00,34.4,28.2,30.34,West,270,6.5,9.4,78,0.00,,,0.00,WUHU216HW,2013-03-06 23:31:00,
2013-03-06 18:36:00,34.4,28.4,30.34,NW,315,8.5,9.4,79,0.00,,,0.00,WUHU216HW,2013-03-06 23:36:00,
2013-03-06 18:41:00,34.4,28.4,30.34,West,270,7.2,8.5,79,0.00,,,0.00,WUHU216HW,2013-03-06 23:41:00,
2013-03-06 18:46:00,34.2,28.3,30.34,WNW,293,6.9,8.7,79,0.00,,,0.00,WUHU216HW,2013-03-06 23:46:00,
2013-03-06 18:51:00,34.2,28.0,30.34,WNW,293,7.6,9.2,78,0.00,,,0.00,WUHU216HW,2013-03-06 23:51:00,
2013-03-06 18:56:00,34.2,28.3,30.34,West,270,7.2,9.2,79,0.00,,,0.00,WUHU216HW,2013-03-06 23:56:00,
2013-03-06 19:01:00,34.2,28.0,30.34,West,270,5.8,7.8,78,0.00,,,0.00,WUHU216HW,2013-03-07 00:01:00,
2013-03-06 19:06:00,34.2,28.3,30.34,WNW,293,4.7,7.6,79,0.00,,,0.00,WUHU216HW,2013-03-07 00:06:00,
2013-03-06 19:11:00,34.0,28.1,30.34,West,270,4.7,6.3,79,0.00,,,0.00,WUHU216HW,2013-03-07 00:11:00,
2013-03-06 19:16:00,34.0,28.1,30.35,West,270,4.5,6.3,79,0.00,,,0.00,WUHU216HW,2013-03-07 00:16:00,
2013-03-06 19:22:00,34.0,28.1,30.35,West,270,5.4,6.9,79,0.00,,,0.00,WUHU216HW,2013-03-07 00:22:00,
2013-03-06 19:27:00,34.0,28.1,30.35,West,270,5.4,6.9,79,0.00,,,0.00,WUHU216HW,2013-03-07 00:27:00,
2013-03-06 19:56:00,34.0,28.4,30.36,West,270,6.3,6.9,80,0.00,,,0.00,WUHU216HW,2013-03-07 00:56:00,
2013-03-06 20:01:00,34.0,28.4,30.36,WNW,293,6.7,8.3,80,0.00,,,0.00,WUHU216HW,2013-03-07 01:01:00,
2013-03-06 20:06:00,34.2,28.6,30.35,West,270,8.9,8.9,80,0.00,,,0.00,WUHU216HW,2013-03-07 01:06:00,
2013-03-06 20:11:00,34.2,28.6,30.36,West,270,5.6,8.9,80,0.00,,,0.00,WUHU216HW,2013-03-07 01:11:00,
2013-03-06 20:16:00,34.2,28.6,30.36,West,270,7.8,7.8,80,0.00,,,0.00,WUHU216HW,2013-03-07 01:16:00,
2013-03-06 20:21:00,34.4,28.8,30.36,WNW,293,7.6,8.7,80,0.00,,,0.00,WUHU216HW,2013-03-07 01:21:00,
2013-03-06 20:26:00,34.4,28.8,30.35,West,270,6.3,9.6,80,0.00,,,0.00,WUHU216HW,2013-03-07 01:26:00,
2013-03-06 20:31:00,34.2,28.6,30.36,West,270,6.3,9.6,80,0.00,,,0.00,WUHU216HW,2013-03-07 01:31:00,
2013-03-06 20:36:00,34.2,28.6,30.36,WSW,248,5.8,7.4,80,0.00,,,0.00,WUHU216HW,2013-03-07 01:36:00,
2013-03-06 20:41:00,34.2,28.9,30.36,WNW,293,5.4,6.3,81,0.00,,,0.00,WUHU216HW,2013-03-07 01:41:00,
2013-03-06 20:46:00,34.0,28.7,30.36,WNW,293,5.8,6.9,81,0.00,,,0.00,WUHU216HW,2013-03-07 01:46:00,
2013-03-06 20:51:00,34.0,28.7,30.36,WNW,293,5.4,6.9,81,0.00,,,0.00,WUHU216HW,2013-03-07 01:51:00,
2013-03-06 20:56:00,34.0,29.0,30.36,West,270,5.6,6.5,82,0.00,,,0.00,WUHU216HW,2013-03-07 01:56:00,
2013-03-06 21:01:00,34.0,29.0,30.36,WNW,293,4.7,6.0,82,0.00,,,0.00,WUHU216HW,2013-03-07 02:01:00,
2013-03-06 21:06:00,34.0,29.0,30.37,WNW,293,6.5,6.5,82,0.00,,,0.00,WUHU216HW,2013-03-07 02:06:00,
2013-03-06 21:11:00,34.0,29.4,30.36,WNW,293,5.4,6.5,83,0.00,,,0.00,WUHU216HW,2013-03-07 02:11:00,
2013-03-06 21:16:00,33.8,28.8,30.37,WNW,293,6.3,6.3,82,0.00,,,0.00,WUHU216HW,2013-03-07 02:16:00,
2013-03-06 21:21:00,33.8,28.8,30.37,WNW,293,5.4,6.3,82,0.00,,,0.00,WUHU216HW,2013-03-07 02:21:00,
2013-03-06 21:26:00,33.8,28.8,30.37,WNW,293,4.5,6.3,82,0.00,,,0.00,WUHU216HW,2013-03-07 02:26:00,
2013-03-06 21:31:00,33.8,29.2,30.37,West,270,4.3,6.3,83,0.00,,,0.00,WUHU216HW,2013-03-07 02:31:00,
2013-03-06 21:36:00,33.8,29.2,30.37,West,270,4.9,5.4,83,0.00,,,0.00,WUHU216HW,2013-03-07 02:36:00,
2013-03-06 21:41:00,33.7,29.0,30.37,West,270,3.6,5.4,83,0.00,,,0.00,WUHU216HW,2013-03-07 02:41:00,
2013-03-06 21:46:00,33.7,29.0,30.37,WNW,293,3.6,4.7,83,0.00,,,0.00,WUHU216HW,2013-03-07 02:46:00,
2013-03-06 21:51:00,33.5,28.8,30.37,West,270,3.4,4.7,83,0.00,,,0.00,WUHU216HW,2013-03-07 02:51:00,
2013-03-06 21:56:00,33.5,28.8,30.37,West,270,4.0,4.0,83,0.00,,,0.00,WUHU216HW,2013-03-07 02:56:00,
2013-03-06 22:01:00,33.5,28.8,30.37,West,270,3.1,4.0,83,0.00,,,0.00,WUHU216HW,2013-03-07 03:01:00,
2013-03-06 22:06:00,33.3,28.6,30.37,West,270,3.8,3.8,83,0.00,,,0.00,WUHU216HW,2013-03-07 03:06:00,
2013-03-06 22:11:00,33.3,28.6,30.37,West,270,3.4,4.0,83,0.00,,,0.00,WUHU216HW,2013-03-07 03:11:00,
2013-03-06 22:16:00,33.3,29.3,30.37,WSW,248,4.5,4.7,85,0.00,,,0.00,WUHU216HW,2013-03-07 03:16:00,
2013-03-06 22:21:00,33.3,29.5,30.37,West,270,5.1,5.4,86,0.00,,,0.00,WUHU216HW,2013-03-07 03:21:00,
2013-03-06 22:26:00,33.3,29.5,30.37,WNW,293,5.1,5.4,86,0.00,,,0.00,WUHU216HW,2013-03-07 03:26:00,
2013-03-06 22:31:00,33.3,29.5,30.37,West,270,4.0,5.1,86,0.00,,,0.00,WUHU216HW,2013-03-07 03:31:00,
2013-03-06 22:36:00,33.1,29.3,30.37,WNW,293,3.1,4.0,86,0.00,,,0.00,WUHU216HW,2013-03-07 03:36:00,
2013-03-06 22:41:00,33.1,29.3,30.37,West,270,2.7,3.4,86,0.00,,,0.00,WUHU216HW,2013-03-07 03:41:00,
2013-03-06 22:46:00,33.1,29.3,30.37,WNW,293,2.2,3.6,86,0.00,,,0.00,WUHU216HW,2013-03-07 03:46:00,
2013-03-06 22:51:00,33.1,29.3,30.37,WNW,293,3.4,3.6,86,0.00,,,0.00,WUHU216HW,2013-03-07 03:51:00,
2013-03-06 22:56:00,32.9,29.2,30.37,WSW,248,3.4,3.8,86,0.00,,,0.00,WUHU216HW,2013-03-07 03:56:00,
2013-03-06 23:01:00,32.9,29.2,30.37,West,270,3.1,4.7,86,0.00,,,0.00,WUHU216HW,2013-03-07 04:01:00,
2013-03-06 23:06:00,32.9,29.2,30.37,West,270,3.1,4.7,86,0.00,,,0.00,WUHU216HW,2013-03-07 04:06:00,
2013-03-06 23:11:00,32.8,29.0,30.38,West,270,2.0,3.4,86,0.00,,,0.00,WUHU216HW,2013-03-07 04:11:00,
2013-03-06 23:16:00,32.8,29.4,30.38,WNW,293,3.4,4.3,87,0.00,,,0.00,WUHU216HW,2013-03-07 04:16:00,
2013-03-06 23:21:00,32.8,29.4,30.38,WNW,293,2.9,4.9,87,0.00,,,0.00,WUHU216HW,2013-03-07 04:21:00,
2013-03-06 23:26:00,32.8,29.6,30.37,WNW,293,3.8,5.4,88,0.00,,,0.00,WUHU216HW,2013-03-07 04:26:00,
2013-03-06 23:31:00,32.8,29.6,30.38,WNW,293,4.0,5.4,88,0.00,,,0.00,WUHU216HW,2013-03-07 04:31:00,
2013-03-06 23:36:00,32.8,29.6,30.38,WNW,293,4.7,5.1,88,0.00,,,0.00,WUHU216HW,2013-03-07 04:36:00,
2013-03-06 23:41:00,32.8,29.6,30.38,NW,315,4.0,4.9,88,0.00,,,0.00,WUHU216HW,2013-03-07 04:41:00,
2013-03-06 23:46:00,32.8,29.6,30.38,WNW,293,4.7,5.4,88,0.00,,,0.00,WUHU216HW,2013-03-07 04:46:00,
2013-03-06 23:51:00,32.8,29.6,30.38,WNW,293,6.3,6.3,88,0.00,,,0.00,WUHU216HW,2013-03-07 04:51:00,
2013-03-06 23:56:00,32.6,29.4,30.37,WNW,293,4.7,6.3,88,0.00,,,0.00,WUHU216HW,2013-03-07 04:56:00,